OpenBCM V1.08-5-g2f4a (Linux)

Packet Radio Mailbox

IZ3LSV

[San Dona' di P. JN]

 Login: GUEST





  
I0OJJ  > KEPS     17.07.25 02:40l 343 Lines 16342 Bytes #119 (0) @ AMSAT
BID : ORB25198.1
Read: GUEST
Subj: 2Line Orbital Elements 25198.AMSAT
Path: IZ3LSV<IK6IHL<IK7NXU<HB9ON<HB9ON<PI8ZTM<PD0LPM<IR0AAB<I0OJJ
Sent: 250717/0025z @:I0OJJ.ITA.EU [Rome] obcm1.08-10-g596e
From: I0OJJ @ I0OJJ.ITA.EU (Gustavo)
To:   KEPS @ AMSAT
X-Info: This message was generated automatically


QST de W1STR

AMSAT Orbital Elements for Amateur Satellites in TLE Format
From Orbital Analysis Office
New England Sci-Tech STEM Education Center
Natick, MA July 17, 2025
To all radio amateurs


These element sets describe the orbits of various satellites 
in use by the amateur radio community. For details see:
www.amsat.org/keplerian-elements-formats/

A daily update of element sets is available at:
www.amsat.org/tle/daily-bulletin.txt
or without bulletin text:
www.amsat.org/tle/dailytle.txt


AO-07
1 07530U 74089B   25197.60361591 -.00000047  00000-0 -47281-5 0  9998
2 07530 101.9938 202.2622 0012569  52.7454  59.1052 12.53690159318469
UO-11
1 14781U 84021B   25197.61785922  .00000849  00000-0  94987-4 0  9992
2 14781  97.7565 163.2602 0007014 203.8323 156.2570 14.89469650207158
AO-27
1 22825U 93061C   25197.42080319  .00000058  00000-0  39477-4 0  9996
2 22825  98.7348 259.1566 0008528  13.1009 347.0393 14.30809103658985
FO-29
1 24278U 96046B   25197.57152377 -.00000019  00000-0  19207-4 0  9993
2 24278  98.5710  86.5911 0348949 246.6973 109.7088 13.53250516428029
NOAA-15
1 25338U 98030A   25197.83354252  .00000155  00000-0  81215-4 0  9999
2 25338  98.5338 222.0656 0009099 247.5387 112.4831 14.26997248413713
GO-32
1 25397U 98043D   25197.50204308  .00000039  00000-0  36861-4 0  9996
2 25397  98.9724 177.3958 0002372  96.3916 263.7532 14.24322289403546
ISS
1 25544U 98067A   25197.73223905  .00006509  00000-0  11952-3 0  9996
2 25544  51.6367 160.6113 0002844  25.5140  36.8267 15.50574159519743
NO-44
1 26931U 01043C   25197.87894650  .00000073  00000-0  58260-4 0  9995
2 26931  67.0510  31.4012 0006281 276.9642  83.0746 14.31748852242601
SO-50
1 27607U 02058C   25197.13498448  .00000787  00000-0  11534-3 0  9991
2 27607  64.5529  87.6907 0060309 326.0972  33.6284 14.81711723214647
CO-55
1 27844U 03031E   25197.56845050  .00000213  00000-0  11167-3 0  9994
2 27844  98.6758 205.3645 0010912  81.4864 278.7551 14.24019094143905
CO-57
1 27848U 03031J   25197.74506934  .00000187  00000-0  10163-3 0  9998
2 27848  98.6787 205.5166 0010794  96.4002 263.8406 14.23350752143709
RS-22
1 27939U 03042A   25197.85575084  .00000762  00000-0  12862-3 0  9992
2 27939  98.3310   8.2145 0010211 249.6569 238.6989 14.72421339166310
CO-58
1 28895U 05043F   25197.38437059  .00001102  00000-0  18743-3 0  9997
2 28895  98.2543 342.2052 0014430 185.4605 174.6446 14.71107593 52359
CO-65
1 32785U 08021C   25197.58229906  .00003572  00000-0  25781-3 0  9994
2 32785  97.7880 169.0307 0011883  88.5352 271.7235 15.04712659934647
CO-66
1 32791U 08021J   25197.52591914  .00008720  00000-0  41499-3 0  9990
2 32791  97.7294 178.4125 0005239  61.0831 299.0927 15.19403198936106
RS-30
1 32953U 08025A   25197.82470479  .00000018  00000-0  59674-4 0  9996
2 32953  82.5009 204.0158 0018513 328.0093  31.9861 12.43166270778160
NOAA-19
1 33591U 09005A   25197.86489008  .00000128  00000-0  92364-4 0  9991
2 33591  98.9956 262.7757 0012737 257.2193 102.7556 14.13389872847375
SRMSAT
1 37841U 11058D   25197.56460343  .00000364  00000-0  54193-4 0  9992
2 37841  19.9724 290.7423 0011858 111.1377 278.1727 14.11444655710342
ZACUBE-1
1 39417U 13066B   25197.62132270  .00003601  00000-0  31320-3 0  9999
2 39417  97.7811 154.4481 0042007 288.9296  70.7374 14.96933992630454
Delfi-N3xt
1 39428U 13066N   25197.73323350  .00003703  00000-0  37781-3 0  9994
2 39428  97.8324 114.9767 0082597 237.6320 121.6884 14.88755397624784
GOMX-1
1 39430U 13066Q   25197.84627134  .00001473  00000-0  23352-3 0  9997
2 39430  97.6804  54.2181 0133762  73.3327 288.2514 14.67760294620872
LO-74
1 39440U 13066AA  25197.81377700  .00003003  00000-0  30479-3 0  9995
2 39440  97.8502 142.1224 0063286  58.0341 302.7008 14.90140624628181
AO-73
1 39444U 13066AE  25197.84018793  .00005074  00000-0  37774-3 0  9991
2 39444  97.7846 159.9073 0040602 260.0665  99.5975 15.02741861629778
DTUSAT-2
1 40030U 14033W   25197.43817693  .00003973  00000-0  25812-3 0  9996
2 40030  98.0574 171.0537 0007406 301.5209  58.5294 15.08645448601952
EO-80
1 40032U 14033Y   25197.45648908  .00004340  00000-0  28089-3 0  9999
2 40032  98.0458 170.6764 0007079 227.1506 132.9126 15.08722231601936
LILACSAT-2
1 40908U 15049K   25197.85898178  .00009070  00000-0  23199-3 0  9991
2 40908  97.5048 219.1206 0009810  38.0274 322.1662 15.39622832543969
IO-86
1 40931U 15052B   25151.18580175  .00001241  00000-0  78118-4 0  9996
2 40931   6.0006  24.0987 0012733 338.8432  21.1169 14.78805930523047
Horyu-4
1 41340U 16012D   25197.47923088  .00016429  00000-0  41945-3 0  9995
2 41340  30.9959 243.5413 0006566  91.2476 268.8922 15.38188037518479
Lapan A3
1 41603U 16040E   25197.84592171  .00002754  00000-0  96957-4 0  9994
2 41603  97.1376 200.9962 0012426 130.3530 229.8798 15.30064762503486
CAS-2T
1 41847U 16066G   25197.62741012  .00000934  00000-0  14025-3 0  9991
2 41847  98.4190 271.7635 0346811  66.5359 297.1884 14.43588869456364
CAS-4B
1 42759U 17034B   25197.85241491  .00062808  00000-0  54573-3 0  9991
2 42759  43.0051  98.9745 0021048 196.7366 163.2808 15.67912718448446
CAS-4A
1 42761U 17034D   25197.85155460  .00067963  00000-0  55061-3 0  9994
2 42761  43.0090  95.6758 0022271 201.4830 158.5104 15.69540536448475
TechnoSat
1 42829U 17042E   25197.42322133  .00002790  00000-0  21736-3 0  9993
2 42829  97.3872   4.3635 0017037 151.8741 208.3408 15.01869835436250
AO-91
1 43017U 17073E   25197.62706398  .00007820  00000-0  39461-3 0  9991
2 43017  97.5209  67.4612 0172515  40.9454 320.4580 15.05260650414788
S-Net D
1 43186U 18014G   25197.62625481  .00003514  00000-0  20767-3 0  9992
2 43186  97.5581 100.1553 0010826  96.8426 263.4036 15.12099346407977
S-Net B
1 43187U 18014H   25197.63214244  .00003233  00000-0  19141-3 0  9997
2 43187  97.5589 100.1348 0011569  92.8549 267.4006 15.12079475407977
S-Net A
1 43188U 18014J   25197.62651862  .00003543  00000-0  20927-3 0  9996
2 43188  97.5597 100.2842 0011399  93.4618 266.7916 15.12104506407978
S-Net C
1 43189U 18014K   25197.63464426  .00003173  00000-0  18790-3 0  9990
2 43189  97.5612 100.3127 0012965  87.1392 273.1322 15.12075427406525
Ten-Koh
1 43677U 18084G   25197.46947918  .00001502  00000-0  12364-3 0  9997
2 43677  98.0852  11.1848 0008728 133.7470 226.4476 15.00704910365770
PO-101
1 43678U 18084H   25197.85136279  .00002082  00000-0  17948-3 0  9998
2 43678  98.1068  15.4027 0009038 149.6170 210.5577 14.98469339365961
QO-100
1 43700U 18090A   25197.56310796  .00000152  00000-0  00000-0 0  9991
2 43700   0.0191  57.8269 0002544  97.2981   8.0086  1.00271646 24314
MinXSS-2
1 43758U 18099A   25197.63623341  .00011617  00000-0  44475-3 0  9999
2 43758  97.4994 263.8119 0011809  33.7052 326.4935 15.26651444362629
AO-95
1 43770U 18099N   25197.57495821  .00007411  00000-0  36959-3 0  9991
2 43770  97.4888 255.2599 0012078  86.6808 273.5808 15.17760840362168
RANGE-A
1 43773U 18099R   25197.59657114  .00003430  00000-0  21834-3 0  9994
2 43773  97.4461 244.9265 0012822  69.2729 290.9873 15.09360784361808
MOVE-II
1 43780U 18099Y   25194.80194206  .15913345  26116-5  37118-3 0  9995
2 43780  97.4526 273.8800 0018736 270.1080  89.8075 16.44566529363241
SNUSat 2
1 43782U 18099AA  25197.59764638  .00004749  00000-0  25710-3 0  9995
2 43782  97.4570 251.7301 0012513  33.7049 326.4976 15.15042895362104
SnugLite
1 43784U 18099AC  25197.39924304  .00005828  00000-0  28904-3 0  9990
2 43784  97.4382 251.1723 0004286  51.1563 309.0053 15.18096648362226
ITASat 1
1 43786U 18099AE  25197.71117586  .00004574  00000-0  25979-3 0  9990
2 43786  97.4538 251.2405 0015796  80.4737 279.8278 15.13300705362078
EAGLET 1
1 43790U 18099AJ  25197.61380837  .00003089  00000-0  19732-3 0  9995
2 43790  97.4743 250.9777 0013473  66.8167 293.4480 15.09303469361659
ESEO
1 43792U 18099AL  25197.62558739  .00001084  00000-0  85390-4 0  9993
2 43792  97.4425 243.7535 0013319  39.2074 321.0114 15.02708033361381
CSIM
1 43793U 18099AM  25197.75549880  .00379711  00000-0  15267-2 0  9994
2 43793  97.4741 278.7925 0001070 167.9009 192.2287 15.85486138363518
JO-97
1 43803U 18099AX  25197.61890403  .00008288  00000-0  37108-3 0  9998
2 43803  97.4636 256.3767 0007608  28.9199 331.2457 15.21499623362402
Suomi 100
1 43804U 18099AY  25197.69418741  .00006932  00000-0  33430-3 0  9996
2 43804  97.4703 255.6395 0012514  26.7896 333.3982 15.18950400362338
ISAT
1 43879U 18111D   25197.56594484  .00015862  00000-0  53040-3 0  9999
2 43879  97.5923 112.8015 0010634  73.8381 286.4029 15.31027537359350
UWE-4
1 43880U 18111E   25197.71204170  .00012197  00000-0  46513-3 0  9993
2 43880  97.5864 111.1630 0013793  82.5615 277.7190 15.26746050357292
Sparrow
1 43881U 18111F   25197.58255204  .00016948  00000-0  54421-3 0  9998
2 43881  97.6075 115.8430 0009022 105.0140 255.2100 15.32334352359458
Prox-1
1 44339U 19036A   25197.28968948  .00007290  00000-0  89658-3 0  9997
2 44339  23.9957 180.5473 0007853 131.5355 228.5816 14.80520461323465
SONATE
1 44400U 19038Q   25185.47540524  .09032085  27445-5  31847-3 0  9995
2 44400  97.6609 216.4776 0012462 246.7970 113.2018 16.43248376333575
Taurus 1
1 44530U 19059C   25197.85547473  .00003855  00000-0  70987-3 0  9992
2 44530  98.6108 339.0337 0007988 277.6408  82.3886 14.66174961309400
Duchifat 3
1 44854U 19089C   25197.84155886  .00038120  00000-0  67603-3 0  9990
2 44854  36.9412 117.7821 0007131 267.7347  92.2594 15.49270673308722
TO-108
1 44881U 19093C   25197.80602285  .00000640  00000-0  79845-4 0  9999
2 44881  97.7914 272.6767 0015218 107.9249 252.3627 14.85660400301601
